| time (UTC) | temp C | wind direction | speed KPH | gust KPH | rain 1hr cm | rain 24hr cm | rain mn cm | humidity % | barometer mb |
| 20260508175525 | 31 | 0 | 0.0 | 11.3 | 0.00 | 0.00 | 0.00 | 19 | 1010.6 |
| 20260508175027 | 31 | 0 | 0.0 | 11.3 | 0.00 | 0.00 | 0.00 | 20 | 1010.7 |
| 20260508174543 | 31 | 192 | 1.6 | 9.7 | 0.00 | 0.00 | 0.00 | 20 | 1010.7 |
| 20260508174027 | 30 | 0 | 1.6 | 11.3 | 0.00 | 0.00 | 0.00 | 20 | 1010.8 |
| 20260508173524 | 30 | 176 | 0.0 | 11.3 | 0.00 | 0.00 | 0.00 | 20 | 1010.8 |
| 20260508173047 | 30 | 194 | 3.2 | 8.0 | 0.00 | 0.00 | 0.00 | 20 | 1010.8 |
| 20260508172524 | 30 | 252 | 1.6 | 9.7 | 0.00 | 0.00 | 0.00 | 21 | 1010.8 |
| 20260508172025 | 30 | 319 | 3.2 | 11.3 | 0.00 | 0.00 | 0.00 | 21 | 1010.8 |
| 20260508171540 | 30 | 317 | 3.2 | 11.3 | 0.00 | 0.00 | 0.00 | 20 | 1010.9 |
| 20260508171023 | 30 | 215 | 1.6 | 9.7 | 0.00 | 0.00 | 0.00 | 20 | 1010.9 |
| 20260508170523 | 30 | 161 | 0.0 | 6.4 | 0.00 | 0.00 | 0.00 | 20 | 1010.9 |
| 20260508170041 | 30 | 0 | 0.0 | 8.0 | 0.00 | 0.00 | 0.00 | 20 | 1011.0 |
| 20260508165524 | 30 | 167 | 1.6 | 8.0 | 0.00 | 0.00 | 0.00 | 20 | 1011.0 |
| 20260508165023 | 30 | 200 | 1.6 | 6.4 | 0.00 | 0.00 | 0.00 | 20 | 1011.0 |
| 20260508164549 | 29 | 94 | 1.6 | 8.0 | 0.00 | 0.00 | 0.00 | 21 | 1011.1 |
| 20260508164026 | 29 | 0 | 1.6 | 8.0 | 0.00 | 0.00 | 0.00 | 21 | 1011.1 |
| 20260508163527 | 28 | 176 | 1.6 | 6.4 | 0.00 | 0.00 | 0.00 | 21 | 1011.1 |
| 20260508163038 | 28 | 0 | 0.0 | 6.4 | 0.00 | 0.00 | 0.00 | 22 | 1011.2 |
| 20260508162524 | 28 | 85 | 0.0 | 9.7 | 0.00 | 0.00 | 0.00 | 22 | 1011.1 |
| 20260508162027 | 27 | 153 | 3.2 | 9.7 | 0.00 | 0.00 | 0.00 | 23 | 1011.1 |
| 20260508161548 | 27 | 212 | 3.2 | 11.3 | 0.00 | 0.00 | 0.00 | 22 | 1011.1 |
| 20260508161024 | 27 | 0 | 1.6 | 12.9 | 0.00 | 0.00 | 0.00 | 25 | 1011.0 |
| 20260508160523 | 27 | 160 | 3.2 | 12.9 | 0.00 | 0.00 | 0.00 | 26 | 1011.0 |
| 20260508160039 | 27 | 199 | 3.2 | 12.9 | 0.00 | 0.00 | 0.00 | 25 | 1010.9 |
| 20260508155524 | 27 | 119 | 3.2 | 11.3 | 0.00 | 0.00 | 0.00 | 27 | 1010.9 |
| 20260508155024 | 26 | 193 | 1.6 | 11.3 | 0.00 | 0.00 | 0.00 | 27 | 1011.0 |
| 20260508154542 | 26 | 140 | 3.2 | 9.7 | 0.00 | 0.00 | 0.00 | 27 | 1011.0 |
| 20260508154025 | 26 | 91 | 3.2 | 11.3 | 0.00 | 0.00 | 0.00 | 28 | 1011.1 |
| 20260508153524 | 25 | 148 | 1.6 | 11.3 | 0.00 | 0.00 | 0.00 | 28 | 1011.2 |
| 20260508153039 | 25 | 100 | 4.8 | 11.3 | 0.00 | 0.00 | 0.00 | 28 | 1011.2 |
| 20260508152524 | 25 | 151 | 4.8 | 11.3 | 0.00 | 0.00 | 0.00 | 29 | 1011.2 |
| 20260508152024 | 25 | 96 | 3.2 | 11.3 | 0.00 | 0.00 | 0.00 | 29 | 1011.2 |
| 20260508151538 | 25 | 132 | 3.2 | 11.3 | 0.00 | 0.00 | 0.00 | 29 | 1011.2 |
| 20260508151025 | 24 | 107 | 1.6 | 9.7 | 0.00 | 0.00 | 0.00 | 29 | 1011.2 |
| 20260508150529 | 24 | 150 | 3.2 | 9.7 | 0.00 | 0.00 | 0.00 | 30 | 1011.2 |
| 20260508150050 | 23 | 145 | 3.2 | 11.3 | 0.00 | 0.00 | 0.00 | 31 | 1011.3 |
| 20260508145525 | 23 | 156 | 3.2 | 12.9 | 0.00 | 0.00 | 0.00 | 31 | 1011.3 |
| 20260508145023 | 23 | 157 | 4.8 | 16.1 | 0.00 | 0.00 | 0.00 | 31 | 1011.2 |
| 20260508144600 | 23 | 133 | 4.8 | 17.7 | 0.00 | 0.00 | 0.00 | 32 | 1011.2 |
| 20260508144024 | 22 | 167 | 4.8 | 17.7 | 0.00 | 0.00 | 0.00 | 31 | 1011.2 |
| 20260508143525 | 22 | 177 | 6.4 | 17.7 | 0.00 | 0.00 | 0.00 | 32 | 1011.2 |
| 20260508143048 | 22 | 98 | 4.8 | 14.5 | 0.00 | 0.00 | 0.00 | 32 | 1011.1 |
| 20260508142526 | 22 | 106 | 4.8 | 12.9 | 0.00 | 0.00 | 0.00 | 32 | 1011.1 |
| 20260508142025 | 22 | 107 | 3.2 | 11.3 | 0.00 | 0.00 | 0.00 | 33 | 1011.2 |
| 20260508141545 | 21 | 113 | 1.6 | 14.5 | 0.00 | 0.00 | 0.00 | 34 | 1011.2 |
| 20260508141024 | 21 | 153 | 4.8 | 14.5 | 0.00 | 0.00 | 0.00 | 34 | 1011.1 |
| 20260508140527 | 21 | 136 | 4.8 | 16.1 | 0.00 | 0.00 | 0.00 | 34 | 1010.9 |
| 20260508140046 | 21 | 117 | 4.8 | 16.1 | 0.00 | 0.00 | 0.00 | 35 | 1010.9 |
| 20260508135527 | 20 | 111 | 4.8 | 14.5 | 0.00 | 0.00 | 0.00 | 35 | 1010.9 |
| 20260508135027 | 20 | 157 | 3.2 | 11.3 | 0.00 | 0.00 | 0.00 | 35 | 1010.8 |
| 20260508134551 | 20 | 131 | 3.2 | 14.5 | 0.00 | 0.00 | 0.00 | 36 | 1010.8 |
| 20260508134024 | 20 | 164 | 4.8 | 14.5 | 0.00 | 0.00 | 0.00 | 36 | 1010.7 |
| 20260508133526 | 20 | 146 | 3.2 | 14.5 | 0.00 | 0.00 | 0.00 | 36 | 1010.6 |
| 20260508133108 | 19 | 144 | 3.2 | 12.9 | 0.00 | 0.00 | 0.00 | 36 | 1010.6 |
| 20260508132524 | 19 | 92 | 4.8 | 12.9 | 0.00 | 0.00 | 0.00 | 36 | 1010.5 |
| 20260508132024 | 19 | 156 | 6.4 | 12.9 | 0.00 | 0.00 | 0.00 | 36 | 1010.4 |
| 20260508131539 | 19 | 163 | 4.8 | 12.9 | 0.00 | 0.00 | 0.00 | 36 | 1010.4 |
| 20260508131029 | 18 | 118 | 3.2 | 11.3 | 0.00 | 0.00 | 0.00 | 37 | 1010.4 |
| 20260508130523 | 18 | 113 | 3.2 | 11.3 | 0.00 | 0.00 | 0.00 | 37 | 1010.2 |
| 20260508130039 | 18 | 145 | 4.8 | 12.9 | 0.00 | 0.00 | 0.00 | 37 | 1010.3 |
| 20260508125524 | 18 | 158 | 3.2 | 12.9 | 0.00 | 0.00 | 0.00 | 37 | 1010.0 |
| 20260508125025 | 18 | 106 | 3.2 | 12.9 | 0.00 | 0.00 | 0.00 | 37 | 1010.0 |
| 20260508124538 | 18 | 153 | 4.8 | 12.9 | 0.00 | 0.00 | 0.00 | 37 | 1010.0 |
| 20260508124024 | 18 | 111 | 4.8 | 12.9 | 0.00 | 0.00 | 0.00 | 37 | 1009.9 |
| 20260508123528 | 19 | 92 | 3.2 | 9.7 | 0.00 | 0.00 | 0.00 | 37 | 1009.9 |
| 20260508123057 | 19 | 123 | 3.2 | 9.7 | 0.00 | 0.00 | 0.00 | 36 | 1009.9 |
| 20260508122524 | 19 | 95 | 3.2 | 12.9 | 0.00 | 0.00 | 0.00 | 36 | 1009.7 |
| 20260508122024 | 19 | 126 | 3.2 | 12.9 | 0.00 | 0.00 | 0.00 | 36 | 1009.8 |
| 20260508121543 | 19 | 142 | 4.8 | 12.9 | 0.00 | 0.00 | 0.00 | 36 | 1009.8 |
| 20260508121024 | 19 | 158 | 4.8 | 11.3 | 0.00 | 0.00 | 0.00 | 36 | 1009.8 |
| 20260508120524 | 20 | 125 | 4.8 | 12.9 | 0.00 | 0.00 | 0.00 | 36 | 1009.8 |
| 20260508120039 | 20 | 117 | 4.8 | 12.9 | 0.00 | 0.00 | 0.00 | 35 | 1009.7 |
| 20260508115524 | 20 | 144 | 3.2 | 12.9 | 0.00 | 0.00 | 0.00 | 36 | 1009.7 |
| 20260508115025 | 20 | 109 | 4.8 | 12.9 | 0.00 | 0.00 | 0.00 | 36 | 1009.7 |
| 20260508114539 | 20 | 141 | 6.4 | 12.9 | 0.00 | 0.00 | 0.00 | 36 | 1009.7 |
| 20260508114024 | 20 | 186 | 4.8 | 14.5 | 0.00 | 0.00 | 0.00 | 36 | 1009.6 |
| 20260508113526 | 20 | 130 | 4.8 | 14.5 | 0.00 | 0.00 | 0.00 | 35 | 1009.6 |
| 20260508113059 | 20 | 159 | 4.8 | 17.7 | 0.00 | 0.00 | 0.00 | 35 | 1009.6 |
| 20260508112527 | 20 | 155 | 4.8 | 17.7 | 0.00 | 0.00 | 0.00 | 35 | 1009.6 |
| 20260508112024 | 20 | 163 | 4.8 | 14.5 | 0.00 | 0.00 | 0.00 | 35 | 1009.6 |
| 20260508111547 | 20 | 152 | 3.2 | 9.7 | 0.00 | 0.00 | 0.00 | 35 | 1009.6 |
| 20260508111023 | 20 | 125 | 3.2 | 9.7 | 0.00 | 0.00 | 0.00 | 35 | 1009.5 |
| 20260508110523 | 20 | 138 | 3.2 | 8.0 | 0.00 | 0.00 | 0.00 | 34 | 1009.6 |
| 20260508110050 | 20 | 121 | 3.2 | 8.0 | 0.00 | 0.00 | 0.00 | 34 | 1009.6 |
| 20260508105524 | 20 | 177 | 3.2 | 9.7 | 0.00 | 0.00 | 0.00 | 34 | 1009.7 |
| 20260508105023 | 20 | 105 | 3.2 | 9.7 | 0.00 | 0.00 | 0.00 | 34 | 1009.6 |
| 20260508104540 | 20 | 110 | 1.6 | 12.9 | 0.00 | 0.00 | 0.00 | 34 | 1009.5 |
| 20260508104024 | 20 | 126 | 3.2 | 12.9 | 0.00 | 0.00 | 0.00 | 34 | 1009.5 |
| 20260508103525 | 20 | 153 | 4.8 | 14.5 | 0.00 | 0.00 | 0.00 | 34 | 1009.4 |
| 20260508103047 | 20 | 130 | 4.8 | 14.5 | 0.00 | 0.00 | 0.00 | 33 | 1009.4 |
| 20260508102524 | 20 | 132 | 4.8 | 12.9 | 0.00 | 0.00 | 0.00 | 33 | 1009.4 |
| 20260508102024 | 20 | 157 | 4.8 | 16.1 | 0.00 | 0.00 | 0.00 | 33 | 1009.4 |
| 20260508101541 | 20 | 162 | 6.4 | 16.1 | 0.00 | 0.00 | 0.00 | 33 | 1009.2 |
| 20260508101024 | 20 | 154 | 6.4 | 16.1 | 0.00 | 0.00 | 0.00 | 34 | 1009.2 |
| 20260508100524 | 20 | 182 | 6.4 | 14.5 | 0.00 | 0.00 | 0.00 | 34 | 1009.2 |
| 20260508100042 | 20 | 126 | 3.2 | 14.5 | 0.00 | 0.00 | 0.00 | 34 | 1009.2 |
| 20260508095524 | 20 | 140 | 6.4 | 14.5 | 0.00 | 0.00 | 0.00 | 34 | 1009.1 |
| 20260508095023 | 20 | 130 | 4.8 | 12.9 | 0.00 | 0.00 | 0.00 | 34 | 1009.0 |
| 20260508094539 | 20 | 111 | 4.8 | 14.5 | 0.00 | 0.00 | 0.00 | 34 | 1009.1 |
| 20260508094024 | 20 | 93 | 6.4 | 16.1 | 0.00 | 0.00 | 0.00 | 35 | 1009.1 |
| 20260508093524 | 20 | 133 | 4.8 | 16.1 | 0.00 | 0.00 | 0.00 | 35 | 1009.1 |
| 20260508093039 | 20 | 159 | 3.2 | 16.1 | 0.00 | 0.00 | 0.00 | 35 | 1009.0 |
| 20260508092523 | 20 | 152 | 3.2 | 16.1 | 0.00 | 0.00 | 0.00 | 35 | 1009.1 |
| 20260508092023 | 20 | 117 | 4.8 | 16.1 | 0.00 | 0.00 | 0.00 | 35 | 1009.1 |
| 20260508091550 | 20 | 119 | 4.8 | 12.9 | 0.00 | 0.00 | 0.00 | 35 | 1009.1 |
| 20260508091025 | 20 | 122 | 4.8 | 11.3 | 0.00 | 0.00 | 0.00 | 34 | 1009.1 |
| 20260508090525 | 20 | 126 | 4.8 | 16.1 | 0.00 | 0.00 | 0.00 | 34 | 1009.2 |
| 20260508090058 | 20 | 92 | 6.4 | 16.1 | 0.00 | 0.00 | 0.00 | 34 | 1009.2 |
| 20260508085526 | 20 | 79 | 4.8 | 14.5 | 0.00 | 0.00 | 0.00 | 33 | 1009.2 |
| 20260508085024 | 20 | 115 | 6.4 | 14.5 | 0.00 | 0.00 | 0.00 | 33 | 1009.2 |
| 20260508084539 | 20 | 105 | 6.4 | 12.9 | 0.00 | 0.00 | 0.00 | 32 | 1009.2 |
| 20260508084025 | 20 | 104 | 4.8 | 12.9 | 0.00 | 0.00 | 0.00 | 31 | 1009.2 |
| 20260508083524 | 21 | 82 | 3.2 | 9.7 | 0.00 | 0.00 | 0.00 | 29 | 1009.1 |
| 20260508083039 | 21 | 106 | 3.2 | 9.7 | 0.00 | 0.00 | 0.00 | 28 | 1009.2 |
| 20260508082527 | 21 | 98 | 3.2 | 9.7 | 0.00 | 0.00 | 0.00 | 27 | 1009.2 |
| 20260508082028 | 21 | 95 | 3.2 | 9.7 | 0.00 | 0.00 | 0.00 | 26 | 1009.2 |
| 20260508081544 | 21 | 108 | 3.2 | 9.7 | 0.00 | 0.00 | 0.00 | 25 | 1009.2 |
| 20260508081028 | 21 | 103 | 3.2 | 9.7 | 0.00 | 0.00 | 0.00 | 25 | 1009.3 |
| 20260508080526 | 21 | 111 | 4.8 | 9.7 | 0.00 | 0.00 | 0.00 | 24 | 1009.3 |
| 20260508080040 | 21 | 104 | 3.2 | 9.7 | 0.00 | 0.00 | 0.00 | 23 | 1009.3 |
| 20260508075526 | 21 | 93 | 3.2 | 8.0 | 0.00 | 0.00 | 0.00 | 22 | 1009.3 |
| 20260508075025 | 21 | 116 | 3.2 | 9.7 | 0.00 | 0.00 | 0.00 | 22 | 1009.2 |
| 20260508074543 | 21 | 80 | 3.2 | 9.7 | 0.00 | 0.00 | 0.00 | 22 | 1009.2 |
| 20260508074025 | 22 | 98 | 3.2 | 9.7 | 0.00 | 0.00 | 0.00 | 22 | 1009.3 |
| 20260508073525 | 22 | 95 | 3.2 | 6.4 | 0.00 | 0.00 | 0.00 | 23 | 1009.3 |
| 20260508073040 | 22 | 113 | 1.6 | 6.4 | 0.00 | 0.00 | 0.00 | 23 | 1009.4 |
| 20260508072524 | 22 | 82 | 3.2 | 4.8 | 0.00 | 0.00 | 0.00 | 23 | 1009.3 |
| 20260508072027 | 22 | 102 | 1.6 | 4.8 | 0.00 | 0.00 | 0.00 | 24 | 1009.3 |
| 20260508071552 | 22 | 102 | 1.6 | 4.8 | 0.00 | 0.00 | 0.00 | 24 | 1009.3 |
| 20260508071026 | 22 | 115 | 1.6 | 6.4 | 0.00 | 0.00 | 0.00 | 23 | 1009.4 |
| 20260508070524 | 22 | 145 | 1.6 | 9.7 | 0.00 | 0.00 | 0.00 | 23 | 1009.3 |
| 20260508070043 | 22 | 105 | 3.2 | 9.7 | 0.00 | 0.00 | 0.00 | 23 | 1009.4 |
| 20260508065524 | 22 | 0 | 3.2 | 9.7 | 0.00 | 0.00 | 0.00 | 22 | 1009.4 |
| 20260508065024 | 23 | 103 | 1.6 | 6.4 | 0.00 | 0.00 | 0.00 | 22 | 1009.2 |
| 20260508064539 | 23 | 102 | 1.6 | 6.4 | 0.00 | 0.00 | 0.00 | 21 | 1009.2 |
| 20260508064025 | 22 | 87 | 3.2 | 6.4 | 0.00 | 0.00 | 0.00 | 22 | 1009.2 |
| 20260508063525 | 22 | 0 | 3.2 | 6.4 | 0.00 | 0.00 | 0.00 | 23 | 1009.2 |
| 20260508063039 | 23 | 78 | 1.6 | 4.8 | 0.00 | 0.00 | 0.00 | 24 | 1009.3 |
| 20260508062524 | 23 | 95 | 0.0 | 3.2 | 0.00 | 0.00 | 0.00 | 23 | 1009.1 |
| 20260508062025 | 23 | 0 | 0.0 | 0.0 | 0.00 | 0.00 | 0.00 | 22 | 1009.2 |
| 20260508061543 | 23 | 0 | 0.0 | 3.2 | 0.00 | 0.00 | 0.00 | 22 | 1009.1 |
| 20260508061026 | 23 | 0 | 0.0 | 3.2 | 0.00 | 0.00 | 0.00 | 20 | 1009.1 |
| 20260508060524 | 24 | 0 | 0.0 | 4.8 | 0.00 | 0.00 | 0.00 | 20 | 1009.0 |
| 20260508060044 | 24 | 194 | 1.6 | 4.8 | 0.00 | 0.00 | 0.00 | 20 | 1009.1 |
| 20260508055525 | 24 | 194 | 0.0 | 4.8 | 0.00 | 0.00 | 0.00 | 19 | 1009.0 |
| 20260508055025 | 24 | 194 | 1.6 | 6.4 | 0.00 | 0.00 | 0.00 | 19 | 1009.0 |
| 20260508054545 | 25 | 194 | 1.6 | 6.4 | 0.00 | 0.00 | 0.00 | 19 | 1009.0 |
| 20260508054024 | 25 | 213 | 0.0 | 3.2 | 0.00 | 0.00 | 0.00 | 20 | 1009.1 |
| 20260508053523 | 25 | 213 | 0.0 | 4.8 | 0.00 | 0.00 | 0.00 | 18 | 1008.9 |
| 20260508053101 | 25 | 213 | 0.0 | 4.8 | 0.00 | 0.00 | 0.00 | 18 | 1009.0 |
| 20260508052524 | 25 | 206 | 1.6 | 6.4 | 0.00 | 0.00 | 0.00 | 18 | 1008.9 |
| 20260508052024 | 25 | 205 | 3.2 | 6.4 | 0.00 | 0.00 | 0.00 | 18 | 1009.0 |
| 20260508051541 | 25 | 208 | 3.2 | 6.4 | 0.00 | 0.00 | 0.00 | 19 | 1009.0 |
| 20260508051025 | 25 | 188 | 1.6 | 3.2 | 0.00 | 0.00 | 0.00 | 19 | 1008.9 |
| 20260508050523 | 25 | 189 | 1.6 | 3.2 | 0.00 | 0.00 | 0.00 | 19 | 1008.9 |
| 20260508050041 | 25 | 189 | 1.6 | 3.2 | 0.00 | 0.00 | 0.00 | 18 | 1008.9 |
| 20260508045528 | 25 | 0 | 0.0 | 4.8 | 0.00 | 0.00 | 0.00 | 18 | 1008.8 |
| 20260508045024 | 26 | 189 | 0.0 | 4.8 | 0.00 | 0.00 | 0.00 | 18 | 1008.8 |
| 20260508044538 | 26 | 189 | 1.6 | 4.8 | 0.00 | 0.00 | 0.00 | 17 | 1008.7 |
| 20260508044027 | 26 | 188 | 1.6 | 4.8 | 0.00 | 0.00 | 0.00 | 17 | 1008.7 |
| 20260508043525 | 26 | 188 | 1.6 | 4.8 | 0.00 | 0.00 | 0.00 | 17 | 1008.6 |
| 20260508043040 | 26 | 0 | 0.0 | 0.0 | 0.00 | 0.00 | 0.00 | 16 | 1008.5 |
| 20260508042524 | 26 | 0 | 0.0 | 0.0 | 0.00 | 0.00 | 0.00 | 16 | 1008.5 |
| 20260508042023 | 27 | 0 | 0.0 | 1.6 | 0.00 | 0.00 | 0.00 | 16 | 1008.5 |
| 20260508041606 | 27 | 0 | 0.0 | 3.2 | 0.00 | 0.00 | 0.00 | 15 | 1008.3 |
| 20260508041024 | 27 | 0 | 0.0 | 4.8 | 0.00 | 0.00 | 0.00 | 15 | 1008.5 |
| 20260508040525 | 27 | 232 | 1.6 | 4.8 | 0.00 | 0.00 | 0.00 | 15 | 1008.2 |
| 20260508040051 | 27 | 248 | 1.6 | 4.8 | 0.00 | 0.00 | 0.00 | 14 | 1008.3 |
| 20260508035524 | 27 | 258 | 1.6 | 4.8 | 0.00 | 0.00 | 0.00 | 15 | 1008.2 |
| 20260508035027 | 27 | 236 | 1.6 | 4.8 | 0.00 | 0.00 | 0.00 | 14 | 1008.1 |
| 20260508034539 | 28 | 0 | 1.6 | 4.8 | 0.00 | 0.00 | 0.00 | 14 | 1007.9 |
| 20260508034025 | 28 | 240 | 1.6 | 6.4 | 0.00 | 0.00 | 0.00 | 14 | 1007.9 |
| 20260508033524 | 28 | 0 | 1.6 | 6.4 | 0.00 | 0.00 | 0.00 | 14 | 1007.9 |
| 20260508033040 | 28 | 205 | 3.2 | 6.4 | 0.00 | 0.00 | 0.00 | 14 | 1007.7 |
| 20260508032524 | 28 | 288 | 1.6 | 4.8 | 0.00 | 0.00 | 0.00 | 13 | 1007.8 |
| 20260508032024 | 29 | 267 | 0.0 | 6.4 | 0.00 | 0.00 | 0.00 | 13 | 1007.7 |
| 20260508031540 | 29 | 246 | 1.6 | 6.4 | 0.00 | 0.00 | 0.00 | 12 | 1007.8 |
| 20260508031024 | 29 | 262 | 1.6 | 6.4 | 0.00 | 0.00 | 0.00 | 12 | 1007.6 |
| 20260508030528 | 30 | 276 | 1.6 | 4.8 | 0.00 | 0.00 | 0.00 | 12 | 1007.5 |
| 20260508030038 | 30 | 260 | 0.0 | 6.4 | 0.00 | 0.00 | 0.00 | 12 | 1007.4 |
| 20260508025524 | 30 | 0 | 0.0 | 6.4 | 0.00 | 0.00 | 0.00 | 11 | 1007.4 |
| 20260508025024 | 30 | 239 | 1.6 | 6.4 | 0.00 | 0.00 | 0.00 | 11 | 1007.3 |
| 20260508024543 | 30 | 243 | 1.6 | 6.4 | 0.00 | 0.00 | 0.00 | 11 | 1007.2 |
| 20260508024024 | 30 | 0 | 1.6 | 9.7 | 0.00 | 0.00 | 0.00 | 11 | 1007.1 |
| 20260508023528 | 31 | 269 | 1.6 | 9.7 | 0.00 | 0.00 | 0.00 | 11 | 1007.2 |
| 20260508023038 | 31 | 0 | 3.2 | 9.7 | 0.00 | 0.00 | 0.00 | 11 | 1007.1 |
| 20260508022524 | 31 | 279 | 3.2 | 11.3 | 0.00 | 0.00 | 0.00 | 10 | 1007.0 |
| 20260508022024 | 31 | 298 | 3.2 | 11.3 | 0.00 | 0.00 | 0.00 | 10 | 1007.0 |
| 20260508021539 | 31 | 306 | 3.2 | 11.3 | 0.00 | 0.00 | 0.00 | 10 | 1007.0 |
| 20260508021024 | 31 | 306 | 3.2 | 9.7 | 0.00 | 0.00 | 0.00 | 10 | 1006.9 |
| 20260508020524 | 32 | 302 | 3.2 | 11.3 | 0.00 | 0.00 | 0.00 | 10 | 1006.8 |
| 20260508020045 | 32 | 267 | 3.2 | 11.3 | 0.00 | 0.00 | 0.00 | 9 | 1006.6 |
| 20260508015528 | 32 | 299 | 1.6 | 12.9 | 0.00 | 0.00 | 0.00 | 9 | 1006.7 |
| 20260508015025 | 32 | 287 | 3.2 | 14.5 | 0.00 | 0.00 | 0.00 | 9 | 1006.8 |
| 20260508014539 | 32 | 304 | 4.8 | 17.7 | 0.00 | 0.00 | 0.00 | 9 | 1006.9 |
| 20260508014025 | 32 | 253 | 6.4 | 17.7 | 0.00 | 0.00 | 0.00 | 8 | 1006.9 |
| 20260508013530 | 32 | 286 | 3.2 | 17.7 | 0.00 | 0.00 | 0.00 | 8 | 1006.9 |
| 20260508013039 | 32 | 270 | 3.2 | 14.5 | 0.00 | 0.00 | 0.00 | 8 | 1006.9 |
| 20260508012524 | 33 | 289 | 4.8 | 19.3 | 0.00 | 0.00 | 0.00 | 8 | 1006.9 |
| 20260508012024 | 33 | 282 | 8.0 | 19.3 | 0.00 | 0.00 | 0.00 | 8 | 1006.8 |
| 20260508011551 | 33 | 269 | 3.2 | 17.7 | 0.00 | 0.00 | 0.00 | 8 | 1006.8 |
| 20260508011024 | 33 | 252 | 6.4 | 17.7 | 0.00 | 0.00 | 0.00 | 8 | 1006.8 |
| 20260508010527 | 33 | 256 | 6.4 | 17.7 | 0.00 | 0.00 | 0.00 | 8 | 1006.7 |
| 20260508010043 | 33 | 317 | 4.8 | 17.7 | 0.00 | 0.00 | 0.00 | 8 | 1006.8 |
| 20260508005527 | 33 | 262 | 8.0 | 17.7 | 0.00 | 0.00 | 0.00 | 8 | 1006.6 |
| 20260508005026 | 33 | 308 | 6.4 | 17.7 | 0.00 | 0.00 | 0.00 | 8 | 1006.6 |
| 20260508004543 | 33 | 296 | 4.8 | 14.5 | 0.00 | 0.00 | 0.00 | 8 | 1006.6 |
| 20260508004027 | 33 | 260 | 4.8 | 14.5 | 0.00 | 0.00 | 0.00 | 8 | 1006.8 |
| 20260508003524 | 33 | 274 | 4.8 | 12.9 | 0.00 | 0.00 | 0.00 | 8 | 1006.7 |
| 20260508003038 | 33 | 298 | 4.8 | 14.5 | 0.00 | 0.00 | 0.00 | 7 | 1006.8 |
| 20260508002524 | 33 | 275 | 6.4 | 14.5 | 0.00 | 0.00 | 0.00 | 7 | 1006.7 |
| 20260508002024 | 33 | 302 | 4.8 | 12.9 | 0.00 | 0.00 | 0.00 | 8 | 1006.8 |
| 20260508001549 | 33 | 250 | 3.2 | 12.9 | 0.00 | 0.00 | 0.00 | 8 | 1006.7 |
| 20260508001024 | 33 | 298 | 4.8 | 12.9 | 0.00 | 0.00 | 0.00 | 7 | 1006.7 |
| 20260508000524 | 33 | 309 | 3.2 | 9.7 | 0.00 | 0.00 | 0.00 | 8 | 1006.8 |
| 20260508000043 | 33 | 243 | 1.6 | 8.0 | 0.00 | 0.00 | 0.00 | 8 | 1006.7 |
| 20260507235524 | 33 | 331 | 0.0 | 14.5 | 0.00 | 0.00 | 0.00 | 7 | 1006.8 |
| 20260507235024 | 33 | 352 | 3.2 | 16.1 | 0.00 | 0.00 | 0.00 | 7 | 1006.8 |
| 20260507234541 | 33 | 321 | 4.8 | 16.1 | 0.00 | 0.00 | 0.00 | 7 | 1006.8 |
| 20260507234024 | 33 | 336 | 8.0 | 16.1 | 0.00 | 0.00 | 0.00 | 7 | 1006.8 |
| 20260507233524 | 33 | 205 | 4.8 | 14.5 | 0.00 | 0.00 | 0.00 | 8 | 1006.8 |
| 20260507233055 | 33 | 235 | 6.4 | 16.1 | 0.00 | 0.00 | 0.00 | 8 | 1006.8 |
| 20260507232523 | 33 | 287 | 4.8 | 16.1 | 0.00 | 0.00 | 0.00 | 8 | 1006.9 |
| 20260507232026 | 33 | 292 | 3.2 | 14.5 | 0.00 | 0.00 | 0.00 | 9 | 1006.8 |
| 20260507231540 | 33 | 240 | 4.8 | 16.1 | 0.00 | 0.00 | 0.00 | 9 | 1006.8 |
| 20260507231025 | 33 | 310 | 3.2 | 16.1 | 0.00 | 0.00 | 0.00 | 9 | 1006.8 |
| 20260507230525 | 33 | 309 | 8.0 | 17.7 | 0.00 | 0.00 | 0.00 | 9 | 1006.8 |
| 20260507230040 | 34 | 269 | 6.4 | 17.7 | 0.00 | 0.00 | 0.00 | 9 | 1006.9 |
| 20260507225524 | 34 | 271 | 6.4 | 17.7 | 0.00 | 0.00 | 0.00 | 9 | 1007.0 |
| 20260507225026 | 34 | 219 | 3.2 | 17.7 | 0.00 | 0.00 | 0.00 | 9 | 1006.9 |
| 20260507224546 | 35 | 255 | 8.0 | 17.7 | 0.00 | 0.00 | 0.00 | 8 | 1006.9 |
| 20260507224024 | 35 | 291 | 4.8 | 17.7 | 0.00 | 0.00 | 0.00 | 9 | 1007.0 |
| 20260507223527 | 35 | 210 | 4.8 | 17.7 | 0.00 | 0.00 | 0.00 | 8 | 1007.1 |
| 20260507223044 | 34 | 256 | 3.2 | 12.9 | 0.00 | 0.00 | 0.00 | 8 | 1007.1 |
| 20260507222530 | 34 | 258 | 1.6 | 12.9 | 0.00 | 0.00 | 0.00 | 9 | 1007.3 |
| 20260507222024 | 33 | 311 | 0.0 | 12.9 | 0.00 | 0.00 | 0.00 | 8 | 1007.3 |
| 20260507221539 | 34 | 329 | 3.2 | 12.9 | 0.00 | 0.00 | 0.00 | 8 | 1007.4 |
| 20260507221024 | 33 | 240 | 3.2 | 17.7 | 0.00 | 0.00 | 0.00 | 9 | 1007.5 |
| 20260507220526 | 33 | 316 | 0.0 | 20.9 | 0.00 | 0.00 | 0.00 | 9 | 1007.6 |
| 20260507220039 | 33 | 352 | 8.0 | 20.9 | 0.00 | 0.00 | 0.00 | 9 | 1007.6 |
| 20260507215527 | 33 | 288 | 9.7 | 20.9 | 0.00 | 0.00 | 0.00 | 9 | 1007.6 |
| 20260507215024 | 34 | 0 | 3.2 | 14.5 | 0.00 | 0.00 | 0.00 | 9 | 1007.7 |
| 20260507214540 | 34 | 208 | 4.8 | 14.5 | 0.00 | 0.00 | 0.00 | 8 | 1007.7 |
| 20260507214026 | 34 | 274 | 6.4 | 16.1 | 0.00 | 0.00 | 0.00 | 8 | 1007.9 |
| 20260507213524 | 34 | 224 | 6.4 | 16.1 | 0.00 | 0.00 | 0.00 | 9 | 1007.8 |
| 20260507213039 | 34 | 296 | 4.8 | 17.7 | 0.00 | 0.00 | 0.00 | 9 | 1008.0 |
| 20260507212524 | 33 | 0 | 1.6 | 19.3 | 0.00 | 0.00 | 0.00 | 8 | 1008.1 |
| 20260507212027 | 33 | 237 | 6.4 | 19.3 | 0.00 | 0.00 | 0.00 | 9 | 1008.1 |
| 20260507211542 | 33 | 331 | 4.8 | 19.3 | 0.00 | 0.00 | 0.00 | 9 | 1008.1 |
| 20260507211027 | 33 | 325 | 3.2 | 14.5 | 0.00 | 0.00 | 0.00 | 9 | 1008.4 |
| 20260507210525 | 33 | 14 | 3.2 | 12.9 | 0.00 | 0.00 | 0.00 | 9 | 1008.4 |
| 20260507210048 | 34 | 18 | 3.2 | 9.7 | 0.00 | 0.00 | 0.00 | 9 | 1008.6 |
| 20260507205524 | 34 | 64 | 0.0 | 8.0 | 0.00 | 0.00 | 0.00 | 9 | 1008.6 |
| 20260507205027 | 34 | 131 | 1.6 | 11.3 | 0.00 | 0.00 | 0.00 | 8 | 1008.7 |
| 20260507204539 | 34 | 0 | 3.2 | 11.3 | 0.00 | 0.00 | 0.00 | 9 | 1008.7 |
| 20260507204025 | 34 | 166 | 1.6 | 11.3 | 0.00 | 0.00 | 0.00 | 9 | 1008.7 |
| 20260507203526 | 33 | 224 | 1.6 | 12.9 | 0.00 | 0.00 | 0.00 | 9 | 1008.8 |
| 20260507203043 | 33 | 237 | 1.6 | 12.9 | 0.00 | 0.00 | 0.00 | 9 | 1008.8 |
| 20260507202524 | 33 | 334 | 4.8 | 12.9 | 0.00 | 0.00 | 0.00 | 9 | 1008.9 |
| 20260507202024 | 33 | 331 | 3.2 | 12.9 | 0.00 | 0.00 | 0.00 | 8 | 1008.9 |
| 20260507201539 | 33 | 339 | 4.8 | 12.9 | 0.00 | 0.00 | 0.00 | 8 | 1008.9 |
| 20260507201024 | 34 | 268 | 1.6 | 9.7 | 0.00 | 0.00 | 0.00 | 9 | 1009.1 |
| 20260507200524 | 34 | 223 | 3.2 | 14.5 | 0.00 | 0.00 | 0.00 | 9 | 1009.2 |
| 20260507200046 | 34 | 213 | 4.8 | 14.5 | 0.00 | 0.00 | 0.00 | 9 | 1009.3 |
| 20260507195524 | 33 | 198 | 3.2 | 11.3 | 0.00 | 0.00 | 0.00 | 10 | 1009.3 |
| 20260507195024 | 33 | 144 | 1.6 | 9.7 | 0.00 | 0.00 | 0.00 | 10 | 1009.4 |
| 20260507194610 | 32 | 0 | 1.6 | 8.0 | 0.00 | 0.00 | 0.00 | 10 | 1009.6 |
| 20260507194023 | 32 | 42 | 3.2 | 9.7 | 0.00 | 0.00 | 0.00 | 10 | 1009.6 |
| 20260507193524 | 32 | 0 | 1.6 | 11.3 | 0.00 | 0.00 | 0.00 | 10 | 1009.7 |
| 20260507193042 | 32 | 67 | 1.6 | 11.3 | 0.00 | 0.00 | 0.00 | 11 | 1009.7 |
| 20260507192524 | 32 | 302 | 3.2 | 8.0 | 0.00 | 0.00 | 0.00 | 10 | 1009.8 |
| 20260507192026 | 32 | 213 | 1.6 | 9.7 | 0.00 | 0.00 | 0.00 | 11 | 1010.0 |
| 20260507191539 | 32 | 0 | 3.2 | 9.7 | 0.00 | 0.00 | 0.00 | 11 | 1010.0 |
| 20260507191024 | 32 | 265 | 1.6 | 8.0 | 0.00 | 0.00 | 0.00 | 11 | 1010.2 |
| 20260507190524 | 32 | 0 | 1.6 | 12.9 | 0.00 | 0.00 | 0.00 | 11 | 1010.3 |
| 20260507190045 | 32 | 148 | 3.2 | 12.9 | 0.00 | 0.00 | 0.00 | 11 | 1010.3 |
| 20260507185524 | 32 | 205 | 4.8 | 12.9 | 0.00 | 0.00 | 0.00 | 11 | 1010.3 |
| 20260507185024 | 32 | 206 | 3.2 | 9.7 | 0.00 | 0.00 | 0.00 | 12 | 1010.5 |
| 20260507184543 | 31 | 103 | 1.6 | 11.3 | 0.00 | 0.00 | 0.00 | 13 | 1010.5 |
| 20260507184023 | 31 | 120 | 3.2 | 11.3 | 0.00 | 0.00 | 0.00 | 13 | 1010.6 |
| 20260507183524 | 30 | 130 | 1.6 | 9.7 | 0.00 | 0.00 | 0.00 | 13 | 1010.6 |
| 20260507183045 | 30 | 35 | 4.8 | 12.9 | 0.00 | 0.00 | 0.00 | 14 | 1010.8 |
| 20260507182524 | 30 | 348 | 4.8 | 12.9 | 0.00 | 0.00 | 0.00 | 14 | 1010.8 |
| 20260507182024 | 30 | 34 | 3.2 | 8.0 | 0.00 | 0.00 | 0.00 | 13 | 1010.8 |
| 20260507181537 | 30 | 360 | 3.2 | 8.0 | 0.00 | 0.00 | 0.00 | 14 | 1010.9 |
| 20260507181028 | 30 | 110 | 1.6 | 9.7 | 0.00 | 0.00 | 0.00 | 14 | 1010.8 |
| 20260507180525 | 30 | 74 | 1.6 | 9.7 | 0.00 | 0.00 | 0.00 | 14 | 1010.9 |
| 20260507180040 | 30 | 46 | 3.2 | 9.7 | 0.00 | 0.00 | 0.00 | 14 | 1011.0 |